Flag for U.S.A. Weather past 2 weeks in Boulder, Colorado, U.S.A.

12 °F

Light snow. Cloudy.

Feels Like: 2 °F
Forecast: 11 / 22 °F
Wind: 7 mph from East

Location: Broomfield / Jeffco

Current Time: Nov 27, 2015 at 9:27:00 AM

Latest Report: Nov 27, 2015 at 8:47 AM

Visibility: 2 mi

Pressure: 30.39 "Hg (24.60 "Hg at 1623m altitude)

Humidity: 92%

Dew point: 10 °F

Location of BoulderLocation

Historic Weather in Boulder — Graph


Boulder temperature yesterday

Maximum temperature yesterday: 28 °F (at 12:14 AM)
Minimum temperature yesterday: 16 °F (at 9:47 PM)
Average temperature yesterday: 23 °F

Past Weeks' High & Low Weather Summary

High64 °F (Nov 14, 1:49 PM)100% (Nov 16, 5:47 PM)30.39 "Hg (Nov 16, 5:47 PM)
Low14 °F (Nov 27, 4:35 AM)12% (Nov 15, 2:46 PM)29.47 "Hg (Nov 16, 12:48 PM)
Average38 °F54%29.97 "Hg
* Reported Nov 12 7:47 AM — Nov 27 7:47 AM, Boulder, Weather by CustomWeather, © 2015

Note: Actual official high and low records may vary slightly from our data, if they occured in-between our weather recording intervals... More about our weather records


Boulder weather history for previous 24 hours

Time TempWeatherWind HumidityBarometerVisibility
7:47 AM
Fri, Nov 27
14 °FLight snow. Mostly cloudy.5 mph92%30.39 "Hg5 mi
6:47 AM14 °FLight snow. Overcast.No wind92%30.39 "Hg5 mi
5:57 AM14 °FLight snow. Low clouds.3 mph92%30.38 "Hg3 mi
4:55 AM14 °FLight snow. Overcast.No wind92%30.38 "Hg1 mi
4:35 AM14 °FLight snow. Overcast.3 mph92%30.38 "Hg2 mi
4:15 AM16 °FLight snow. Mostly cloudy.3 mph93%30.38 "Hg2 mi
3:55 AM16 °FLight snow. Low clouds.5 mph93%30.38 "Hg1 mi
3:34 AM16 °FLight snow. Low clouds.5 mph93%30.37 "Hg2 mi
3:15 AM16 °FLight snow. Mostly cloudy.5 mph93%30.38 "Hg2 mi
2:54 AM16 °FLight snow. Mostly cloudy.5 mph93%30.38 "Hg3 mi
2:35 AM16 °FLight snow. Low clouds.7 mph93%30.37 "Hg2 mi
2:15 AM16 °FLight snow. Low clouds.5 mph93%30.38 "Hg1 mi
1:54 AM16 °FSnow. Low clouds.3 mph93%30.37 "Hg1 mi
1:35 AM18 °FHeavy snow. Low clouds.No wind86%30.36 "Hg1 mi
1:15 AM18 °FSnow. Low clouds.No wind86%30.37 "Hg1 mi
12:55 AM18 °FLight snow. Low clouds.No wind86%30.37 "Hg1 mi
11:35 PM
Thu, Nov 26
16 °FLight snow. Low clouds.3 mph93%30.37 "Hg1 mi
10:55 PM18 °FLight snow. Mostly cloudy.7 mph86%30.37 "Hg2 mi
10:35 PM18 °FLight snow. Low clouds.8 mph86%30.37 "Hg5 mi
9:47 PM16 °FMostly cloudy.6 mph93%30.36 "Hg5 mi
8:51 PM18 °FLight snow. Mostly cloudy.8 mph93%30.34 "Hg5 mi
7:45 PM18 °FLight snow. Mostly cloudy.7 mph93%30.33 "Hg3 mi
6:47 PM18 °FLight snow. Mostly cloudy.7 mph93%30.31 "Hg2 mi
5:52 PM18 °FLight snow. Low clouds.8 mph100%30.29 "Hg2 mi
3:45 PM19 °FLight snow. Mostly cloudy.8 mph93%30.23 "Hg2 mi
2:54 PM19 °FLight snow. Low clouds.8 mph100%30.22 "Hg1 mi
1:45 PM21 °FLight snow. Mostly cloudy.7 mph93%30.19 "Hg1 mi
12:45 PM21 °FLight snow. Mostly cloudy.6 mph93%30.19 "Hg1 mi
11:45 AM21 °FLight snow. Mostly cloudy.8 mph93%30.19 "Hg2 mi
10:50 AM21 °FLight snow. Low clouds.7 mph100%30.21 "Hg3 mi
9:50 AM21 °FLight snow. Low clouds.6 mph100%30.21 "Hg1 mi
Weather by CustomWeather, © 2015

See weather overviewHow to use our weather pages